Retour au catalogue

SKYSAT C2

ActifScienceSSO
NORAD 41773·PAYLOAD·🇺🇸 United States

Lancé Sep 16, 2016 depuis Guiana Space Centre

Loading…

Prochains Passages (prochaines 24 heures)

TLE

FraisSource: CelesTrak SupGP

Époque: Sep 14, 2026, 20:49 UTC

1 41773C 16058D   26257.86789352  .00013197  00000+0  29164-3 0  2574
2 41773  97.0148 276.6906 0004989  88.0692 182.9082 15.43864778    16

Suivez SKYSAT C2 en temps réel avec AllMySat

Download on the App Store